Location: Mat�lon
(46.2791°N, 7.1028°E)
Time: 16:57:48
(UTC+00:00)

Cosmos 1025 Rocket - Pass Details

Date: 18 September 2020
Orbit: 595 x 617 km, 82.5° (Epoch: 29 October)

Event Time Altitude Azimuth Distance (km) Brightness Sun altitude
Rises 18:46:03 0° 355° (N) 2,886 6.8 -12.7°
Reaches altitude 10° 18:48:20 10° 1° (N) 1,980 5.8 -13.1°
Maximum altitude 18:52:36 50° 77° (ENE) 788 3.2 -13.8°
Enters shadow 18:56:09 14° 150° (SSE) 1,703 4.9 -14.4°
